Home > Weather > Little Rock > Past weeks

Flag for U.S.A. Weather for the Past 2 Weeks in Little Rock, Arkansas, U.S.A.

Now
58 °F

Passing clouds.


Feels Like: 56 °F
Forecast: 29 / 61 °F
Wind: 9 mph from North

Location: Adams Field

Current Time: Feb 12, 2016 at 12:36:36 PM

Latest Report: Feb 12, 2016 at 11:53 AM


Visibility: 10 mi

Pressure: 30.29 "Hg

Humidity: 33%

Dew point: 29 °F

Location of Little RockLocation

Historic Weather in Little Rock — Graph

°F

Little Rock Temperature Yesterday

Maximum temperature yesterday: 53 °F (at 1:53 PM)
Minimum temperature yesterday: 31 °F (at 6:53 AM)
Average temperature yesterday: 41 °F

High & Low Weather Summary for the Past Weeks

 TemperatureHumidityPressure
High74 °F (Feb 2, 1:53 PM)93% (Feb 2, 3:53 AM)30.51 "Hg (Feb 2, 3:53 AM)
Low27 °F (Feb 5, 6:53 AM)15% (Feb 9, 4:53 PM)29.54 "Hg (Feb 2, 3:53 PM)
Average48 °F50%30.07 "Hg
* Reported Jan 28 10:53 AM — Feb 12 10:53 AM, Little Rock, Weather by CustomWeather, © 2016

Note: Actual official high and low records may vary slightly from our data, if they occured in-between our weather recording intervals... More about our weather records

Advertising

Little Rock Weather History for the Previous 24 Hours

 ConditionsComfort  
Time TempWeatherWind HumidityBarometerVisibility
10:53 AM
Fri, Feb 12
53 °FPassing clouds.6 mph38%30.29 "Hg10 mi
9:53 AM47 °FPassing clouds.9 mph48%30.29 "Hg10 mi
8:53 AM42 °FPassing clouds.10 mph55%30.27 "Hg10 mi
7:53 AM37 °FPassing clouds.5 mph73%30.25 "Hg10 mi
6:53 AM33 °FPassing clouds.No wind75%30.24 "Hg10 mi
5:53 AM34 °FClear.No wind70%30.22 "Hg10 mi
4:53 AM33 °FClear.6 mph72%30.22 "Hg10 mi
3:53 AM36 °FClear.5 mph64%30.22 "Hg9 mi
2:53 AM36 °FClear.5 mph64%30.21 "Hg10 mi
1:53 AM36 °FPassing clouds.6 mph64%30.22 "Hg10 mi
12:53 AM38 °FPassing clouds.6 mph60%30.22 "Hg10 mi
11:53 PM
Thu, Feb 11
39 °FHigh level clouds.5 mph60%30.22 "Hg10 mi
10:53 PM39 °FPassing clouds.7 mph60%30.22 "Hg10 mi
9:53 PM41 °FPassing clouds.9 mph55%30.24 "Hg10 mi
8:53 PM43 °FPassing clouds.8 mph51%30.21 "Hg10 mi
7:53 PM43 °FPassing clouds.9 mph51%30.24 "Hg10 mi
6:53 PM43 °FPassing clouds.8 mph49%30.24 "Hg10 mi
5:53 PM45 °FPassing clouds.9 mph45%30.22 "Hg10 mi
4:53 PM49 °FPartly sunny.10 mph39%30.21 "Hg10 mi
2:53 PM53 °FScattered clouds.12 mph35%30.19 "Hg10 mi
1:53 PM53 °FPassing clouds.12 mph34%30.19 "Hg10 mi
12:53 PM51 °FPassing clouds.12 mph36%30.19 "Hg10 mi
Weather by CustomWeather, © 2016

See weather overviewHow to use our weather pages